Temperature
14 14 15 15 12 10 12 13 13 14 14 16 17 17 16 16 16 18 18 18 18 17 16 16 16 16 16 16 16 16 16 16 16 16 16 16 16 16 16 16 15 15 15 15 15 15 15 15 15
14 14 14 14 11 11 12 12 12 14 16 17 17 17 16 17 17 18 18 18 17 17 16 16 16 16 16 16 16 16 16 16 16 16 16 16 16 15 15 15 15 15 15 15 15 15 15 15 15
13 14 14 10 10 11 14 13 12 14 16 17 17 17 17 17 17 17 18 17 17 16 16 16 16 16 16 16 16 16 16 16 16 16 16 16 15 15 15 15 15 15 15 15 15 15 15 15 15
13 14 12 9 11 11 13 14 13 14 16 16 16 16 16 16 17 17 17 17 16 16 16 16 16 15 15 16 16 16 16 16 16 15 15 15 15 15 15 15 15 15 15 15 15 15 15 15 15
13 13 10 9 10 11 11 12 14 14 15 15 16 14 15 16 16 17 17 17 16 16 15 15 15 15 15 15 15 15 15 15 15 15 15 15 15 15 15 15 15 15 14 14 14 14 14 14 14
12 9 9 10 11 11 11 13 14 14 14 15 15 14 15 16 16 16 16 16 16 15 15 15 15 15 15 15 15 15 15 15 15 15 15 15 15 14 14 15 14 14 14 14 14 14 14 14 14
11 8 9 9 10 11 12 14 14 13 13 15 16 14 15 16 16 16 16 15 15 15 15 15 14 14 15 15 15 15 15 15 15 15 15 14 14 14 14 14 14 14 14 14 14 14 14 14 14
11 8 9 9 10 11 13 14 15 14 14 16 16 14 14 15 15 15 15 15 14 14 14 14 14 14 14 14 14 14 14 14 14 14 14 14 14 14 14 14 14 14 14 14 14 14 14 14 14
10 8 8 9 10 11 13 13 14 15 15 14 15 15 15 15 15 14 14 14 14 13 13 13 13 14 14 14 14 14 14 14 14 14 14 14 14 14 14 14 14 14 14 14 14 14 13 13 13
9 8 9 10 10 11 12 12 13 13 13 13 14 14 14 14 14 14 14 14 13 13 13 13 13 13 13 13 14 13 14 14 14 14 14 14 14 14 13 13 13 13 13 13 13 13 13 13 13
8 7 9 10 11 12 12 12 13 12 11 13 14 14 14 14 14 14 14 14 14 13 13 13 13 13 13 13 13 13 13 13 13 13 13 13 13 13 13 13 13 13 13 13 13 13 13 13 13
7 7 8 10 11 11 11 11 11 12 13 14 14 14 13 13 13 13 13 13 13 13 13 13 13 13 13 13 13 13 13 13 13 13 13 13 13 13 13 13 13 13 13 13 13 13 13 13 13
7 7 8 9 10 10 10 10 10 11 12 13 13 13 13 13 13 13 13 13 12 13 13 13 13 13 13 13 13 13 13 13 13 13 13 13 13 12 12 12 12 12 12 12 12 12 12 12 12
7 7 8 9 9 9 9 9 10 10 12 12 12 12 12 13 13 12 12 12 12 12 12 12 12 12 12 12 12 13 13 12 12 12 12 12 12 12 12 12 12 12 12 12 12 12 12 12 12
7 6 7 7 8 9 9 8 8 10 11 11 11 11 11 12 12 12 12 12 12 12 12 12 12 12 12 12 12 12 12 12 12 12 12 12 12 12 12 12 12 12 12 12 12 12 11 11 11
6 6 5 7 7 8 8 8 8 10 10 9 10 10 11 11 11 12 12 12 12 12 12 12 12 12 12 12 12 12 12 12 12 12 12 12 12 12 11 11 11 11 11 11 11 11 11 11 11
4 4 4 6 6 6 7 6 7 8 8 8 8 9 10 10 11 11 11 12 12 12 12 12 12 12 12 12 12 12 11 11 12 12 11 11 11 11 11 11 11 11 11 11 11 11 11 11 10
3 3 4 5 6 6 5 5 6 7 7 7 8 8 9 9 10 11 11 11 11 11 11 11 11 11 11 11 11 11 11 11 11 11 11 11 11 11 11 11 11 11 11 11 10 10 10 10 10
4 3 4 4 5 5 5 5 6 6 6 6 6 7 8 8 9 10 10 11 11 11 11 11 11 11 11 11 11 11 11 11 11 11 11 11 11 11 11 11 10 10 10 10 10 10 10 10 10
3 3 3 4 5 5 4 4 5 5 5 6 6 6 7 8 8 9 9 10 10 11 11 11 11 11 11 11 11 11 11 11 11 11 11 11 11 10 10 10 10 10 10 10 10 10 10 9 9
3 3 3 3 4 5 4 4 4 5 5 6 6 6 6 7 7 8 9 9 10 10 10 10 11 11 11 11 11 11 10 10 10 10 10 10 10 10 10 10 10 10 10 10 10 10 10 9 9
3 3 3 4 3 3 4 4 4 4 4 4 4 5 6 6 7 7 8 9 9 9 10 10 10 10 10 10 10 10 10 10 10 10 10 10 10 10 10 10 10 10 9 9 9 9 9 9 9
2 3 3 3 2 2 3 3 3 3 4 4 4 4 5 5 6 7 7 8 8 8 9 9 10 10 10 10 10 10 10 10 10 10 10 10 10 10 10 10 10 9 9 9 9 9 9 9 9
2 2 2 2 2 2 3 3 3 2 3 3 3 3 4 4 5 5 6 7 8 8 8 9 9 9 10 10 10 10 10 10 10 10 10 10 9 9 9 9 9 9 9 9 9 9 8 8 8
2 1 1 1 2 2 3 2 2 2 2 3 3 2 3 4 4 5 5 6 7 7 8 8 8 9 9 9 9 9 9 9 9 10 9 9 9 9 9 9 9 9 9 8 8 8 8 8 8
0 1 1 1 1 2 2 2 1 1 1 2 2 2 2 3 3 4 5 6 6 7 7 7 8 8 9 9 9 9 9 9 9 9 9 9 9 9 9 9 9 8 8 8 8 8 8 8 8
0 0 1 1 1 1 1 0 1 1 1 1 1 1 2 2 3 3 4 5 6 6 7 7 7 8 8 8 8 8 8 8 8 8 9 8 8 8 8 8 8 8 8 8 8 8 8 8 7
-0 -0 -0 0 1 1 1 0 0 -0 0 0 0 0 1 2 2 3 3 4 5 6 6 6 7 7 7 8 8 8 8 8 8 8 8 8 8 8 8 8 8 8 8 8 8 8 8 7 7
-1 -1 -1 -1 0 1 0 0 -0 -0 -0 -0 -0 -0 0 1 2 2 3 3 4 5 5 6 6 6 7 7 7 7 7 7 7 8 8 8 7 7 7 7 7 7 7 7 7 7 7 7 7
-2 -2 -2 -1 -1 -1 -1 -0 -0 -1 -1 -1 -1 -0 -0 1 1 2 2 3 3 4 4 5 5 6 6 6 6 6 7 7 7 7 7 7 7 7 7 7 7 7 7 7 7 7 7 7 7
Wind_Speed
5 4 3 4 5 3 5 7 4 4 5 3 3 5 7 7 6 4 1 8 11 12 15 18 18 17 16 15 15 15 15 15 14 15 15 14 14 14 14 13 13 14 14 15 16 16 16 16 16
2 2 5 5 4 3 7 7 7 7 5 2 2 3 3 3 1 3 4 7 12 13 15 17 18 17 16 16 15 15 15 14 14 14 14 14 14 13 13 12 13 13 14 14 15 16 15 15 16
2 4 4 4 5 8 8 6 9 4 4 2 2 1 3 3 3 4 4 9 11 11 14 17 19 18 17 16 15 15 15 14 14 14 13 13 13 13 13 12 12 13 14 14 14 14 14 15 15
3 4 4 3 8 8 6 3 4 2 1 2 4 1 1 1 2 3 8 11 12 10 13 17 19 18 16 15 15 15 14 14 14 13 13 13 13 13 13 13 13 13 13 13 13 13 14 14 14
4 4 2 4 9 7 6 4 2 3 3 2 4 3 1 4 2 7 11 11 12 10 11 16 18 18 17 16 15 15 14 14 14 13 12 13 13 13 13 13 13 13 12 13 13 13 13 14 14
3 4 4 8 10 6 5 4 3 3 2 2 4 4 2 1 5 9 10 9 9 9 10 13 17 17 16 16 15 14 14 14 13 13 12 13 13 13 13 13 13 12 12 12 12 12 13 13 13
4 4 6 7 6 6 5 4 5 5 4 5 5 5 1 2 4 8 9 9 7 8 9 10 12 14 15 15 14 14 14 13 12 12 12 12 13 13 13 12 12 12 12 12 12 12 13 13 13
4 4 5 6 6 7 3 4 4 6 5 3 6 7 5 5 7 9 9 8 7 6 7 7 9 11 12 12 13 13 13 13 12 11 12 12 13 12 12 12 11 11 11 11 12 12 13 13 13
3 2 8 8 7 5 2 2 1 1 3 2 2 3 3 8 10 10 8 6 7 7 5 6 7 8 10 11 12 12 12 12 12 11 12 11 11 11 11 11 11 11 11 11 11 11 12 13 12
4 7 11 6 5 3 2 3 2 1 2 2 0 1 5 9 11 12 12 12 11 10 7 6 7 8 8 9 10 10 10 10 10 10 11 11 11 10 10 10 11 11 11 11 11 11 11 11 10
5 7 5 5 3 3 3 3 2 4 5 6 6 5 8 9 10 11 12 12 11 10 8 7 6 8 8 7 8 7 8 8 9 10 11 11 10 9 9 9 9 10 11 10 10 10 9 10 9
4 5 4 4 3 3 3 2 2 6 7 4 6 9 10 11 12 12 12 11 9 9 8 7 6 7 8 8 7 7 6 7 7 9 11 10 7 7 7 7 7 8 8 9 8 8 9 9 9
5 5 5 5 5 5 5 5 5 7 6 2 3 7 11 11 10 9 8 8 8 9 8 8 7 7 7 7 6 6 6 6 7 8 9 10 7 6 6 6 7 7 8 8 8 8 8 8 8
4 4 6 6 6 5 6 8 6 9 3 3 5 8 9 10 10 7 7 8 8 9 8 7 8 7 7 6 6 6 7 7 8 7 8 10 9 7 6 6 6 6 7 8 8 8 7 6 7
2 4 7 6 5 4 3 9 9 9 4 5 6 7 7 7 7 9 9 9 9 9 8 8 8 7 7 7 7 7 7 8 7 7 9 10 10 9 7 6 5 6 8 9 8 8 7 6 5
0 2 5 5 4 4 5 12 8 4 5 6 6 6 6 6 7 7 7 7 8 8 8 8 7 7 7 6 6 6 7 7 7 8 9 9 10 10 8 6 5 7 8 8 6 5 4 4 4
1 4 6 6 3 3 6 8 6 3 4 5 5 5 5 4 5 5 6 7 8 9 8 8 7 8 7 6 6 6 7 7 7 8 8 9 10 11 9 6 6 8 7 6 5 4 4 4 4
6 5 5 6 4 3 6 7 7 3 3 4 4 4 3 4 5 5 5 6 7 7 8 8 7 7 7 5 5 4 4 4 6 6 7 9 9 10 9 7 7 8 6 5 5 5 4 4 4
4 5 6 7 6 4 7 8 9 5 2 3 3 3 3 4 3 1 3 4 6 6 7 8 8 7 6 5 5 6 5 4 4 5 7 9 9 10 9 6 7 7 6 6 6 5 5 3 3
5 6 6 7 6 5 6 9 8 4 3 3 4 4 4 3 2 1 1 3 4 6 7 8 8 8 8 6 5 4 5 4 4 4 6 8 9 10 9 8 6 6 6 6 6 6 4 2 3
7 7 6 6 7 4 3 6 5 3 1 1 2 2 2 3 3 2 2 2 3 4 5 7 7 7 7 6 5 4 3 3 3 4 4 5 8 9 9 9 7 7 7 7 7 7 6 5 2
9 5 5 5 3 4 3 4 4 3 2 2 3 2 2 2 1 1 2 2 3 3 3 5 6 6 6 7 7 8 7 5 5 4 4 5 7 8 9 9 8 8 6 7 7 6 4 6 5
5 5 5 5 4 3 3 3 4 1 3 4 4 3 2 1 0 1 2 3 2 2 2 3 4 5 5 6 7 8 6 4 3 4 5 5 5 7 8 8 8 8 7 7 7 6 5 5 5
2 1 1 1 2 4 5 4 3 2 3 4 3 3 2 2 2 2 2 2 2 2 2 3 4 4 4 5 6 7 7 6 6 5 5 5 4 4 6 7 7 7 7 7 8 8 7 6 5
2 2 1 1 3 5 3 3 3 4 4 2 2 3 3 3 4 3 3 3 2 2 2 2 4 3 3 4 5 5 6 7 8 7 6 5 4 3 5 6 6 6 7 7 7 7 7 7 7
3 3 3 3 3 2 2 3 3 4 6 5 3 3 3 4 4 4 3 2 2 2 2 2 3 3 3 4 4 4 4 5 5 6 5 6 5 5 5 6 7 7 7 7 7 5 6 6 6
1 2 2 1 1 1 2 3 5 7 10 8 6 6 5 4 4 4 4 4 3 3 2 2 2 2 2 3 3 3 3 4 4 4 4 4 4 4 5 6 5 6 7 7 7 5 6 6 6
1 1 1 1 2 2 1 1 3 7 8 8 6 5 5 5 5 5 5 5 5 3 2 2 2 2 1 2 2 2 2 3 3 4 4 4 4 4 5 5 5 5 5 6 6 5 5 6 5
4 2 1 0 1 2 1 2 2 5 5 5 5 5 4 4 5 5 5 5 5 5 4 4 3 2 1 1 1 2 2 2 2 3 4 4 4 5 6 6 6 6 5 5 5 5 5 6 5
2 2 1 1 1 1 1 2 4 5 5 5 5 6 5 5 4 5 5 6 7 7 6 5 3 2 1 0 1 2 2 2 2 3 3 4 4 4 5 5 6 6 6 6 6 6 6 6 6
Wind_Direction
352 28 65 57 60 59 232 235 217 220 219 214 168 159 167 170 171 195 124 138 136 145 154 154 151 148 144 139 135 132 129 126 125 125 124 123 120 118 116 114 112 110 109 107 106 105 103 102 101
359 54 58 65 116 205 249 229 215 215 201 146 119 125 139 208 197 132 137 150 141 145 151 152 150 148 145 142 138 136 133 129 127 127 126 123 121 119 118 116 114 111 108 106 106 106 105 105 104
64 55 89 97 166 201 224 219 216 231 218 173 136 122 163 191 169 166 170 149 139 142 148 151 151 149 147 145 142 140 137 133 130 128 127 124 122 120 118 116 115 111 107 106 107 107 107 107 106
81 57 65 124 223 226 219 229 194 199 224 186 145 131 251 332 190 170 141 142 139 141 145 151 151 150 148 146 144 143 141 138 133 129 126 126 125 123 119 116 113 111 109 109 109 108 109 108 109
62 90 121 232 239 243 240 248 207 191 193 179 144 158 254 344 91 129 138 142 144 143 144 151 152 151 149 147 145 143 142 140 136 131 127 128 127 124 120 117 113 111 111 112 113 112 111 110 111
70 93 165 227 240 250 248 224 191 203 206 169 149 150 223 37 125 139 141 140 142 143 141 150 154 152 150 149 145 143 143 140 137 134 130 130 127 124 121 119 117 115 114 113 115 115 115 114 112
133 145 203 218 241 252 235 192 188 193 208 208 166 146 220 177 146 138 133 131 131 137 138 142 148 150 150 149 147 146 143 139 136 134 130 129 126 124 121 120 118 118 118 115 117 118 116 114 112
144 146 211 220 223 245 225 187 197 185 211 183 155 161 197 190 139 128 122 125 130 134 139 139 139 141 143 145 147 146 143 140 137 133 128 127 125 122 119 120 119 118 119 119 117 119 117 114 111
113 167 223 215 203 235 223 196 247 199 152 160 197 193 197 139 136 135 135 137 148 150 148 143 139 138 140 143 145 143 142 139 133 129 128 125 120 118 115 117 118 117 116 117 118 118 117 113 108
151 213 229 215 204 226 237 210 206 147 174 215 280 37 121 138 152 158 163 168 170 171 167 155 149 144 140 142 138 136 134 134 131 129 126 123 121 119 116 115 115 113 112 114 113 112 114 111 105
189 221 244 253 252 255 254 256 227 173 224 219 199 171 153 157 167 172 175 177 178 173 169 163 158 151 144 136 134 131 131 130 129 130 129 125 120 116 112 112 110 108 107 103 103 99 103 108 108
222 247 250 271 289 283 263 270 256 221 234 234 193 167 165 172 180 184 183 180 174 171 173 168 158 155 149 143 140 138 133 133 133 136 135 130 122 116 116 115 115 111 110 105 103 103 104 104 107
238 258 261 275 292 282 281 266 261 257 262 254 183 170 176 185 189 188 181 177 175 177 175 173 164 161 155 147 146 145 142 141 141 141 143 141 133 130 125 122 119 117 117 115 109 108 108 104 102
241 268 281 273 268 270 259 268 251 256 229 192 186 193 193 192 193 186 179 181 182 183 179 173 169 162 155 155 153 152 149 145 143 147 152 151 146 139 134 125 122 124 125 123 120 117 114 108 107
265 284 291 267 246 250 244 268 243 248 202 200 208 210 210 208 196 196 193 188 187 185 178 174 173 162 159 160 159 156 154 151 150 154 159 157 152 147 140 133 132 134 131 123 116 110 107 105 101
324 256 264 270 226 232 199 253 265 246 194 215 223 219 219 224 211 207 200 190 186 182 180 178 174 167 165 165 161 158 157 154 156 157 159 160 157 154 144 140 143 143 134 128 124 122 113 107 103
173 236 251 283 235 216 206 253 289 275 195 220 230 226 224 236 236 218 205 194 187 186 182 178 174 172 170 167 160 157 155 156 156 155 156 161 160 158 150 145 145 146 134 130 136 129 123 123 113
225 236 244 255 260 225 235 260 291 288 219 231 235 233 237 242 246 224 204 191 184 181 178 178 174 174 167 158 154 149 146 150 150 153 157 162 162 159 151 144 146 147 141 140 136 133 114 124 124
225 230 261 267 276 255 245 261 277 285 240 241 242 233 240 256 275 226 180 173 171 171 176 179 174 173 167 168 172 170 173 170 164 160 161 164 163 161 153 149 150 151 157 157 146 135 127 114 118
252 250 262 288 290 268 251 261 270 266 233 222 240 238 241 265 294 229 150 148 167 178 181 182 180 176 175 179 180 171 163 167 167 158 160 167 164 163 161 156 159 158 157 154 153 144 140 139 143
259 236 244 266 311 295 247 275 263 268 264 269 257 248 249 231 234 226 179 167 163 176 184 186 184 179 176 166 155 137 129 128 149 166 172 172 171 167 166 165 162 164 167 171 170 163 155 162 170
265 250 254 262 266 267 215 256 272 259 310 305 283 268 259 257 248 215 165 159 169 194 181 174 175 172 170 165 163 160 168 176 182 176 177 171 174 173 171 168 167 169 171 174 179 175 168 163 171
252 276 261 248 222 263 240 228 286 338 298 288 287 290 292 304 110 157 148 163 157 159 158 163 157 157 161 169 170 168 169 171 158 158 164 175 178 177 174 172 171 174 176 178 179 176 175 175 175
265 332 347 136 162 241 225 196 287 321 266 298 321 341 342 28 48 43 56 93 98 106 122 134 140 146 155 161 168 173 170 163 158 165 175 181 183 183 178 177 178 180 180 182 185 184 183 187 181
21 102 87 203 207 237 174 179 251 328 333 312 315 339 358 37 52 48 47 68 83 100 121 133 143 145 146 154 163 174 177 173 177 180 181 180 179 190 193 185 184 184 185 183 180 183 188 186 183
260 189 183 198 213 264 145 209 256 344 350 3 19 30 30 39 41 37 35 56 85 98 111 131 150 157 153 160 171 175 171 176 183 184 183 188 191 192 189 189 188 186 183 181 179 182 188 183 187
297 246 239 176 175 203 244 294 315 357 3 9 21 28 21 22 33 32 27 32 43 61 80 129 146 145 154 168 169 167 175 177 181 181 180 188 186 181 179 186 185 184 180 178 176 182 185 182 189
322 299 69 157 177 222 246 277 317 345 348 352 5 9 2 13 22 23 26 24 27 35 40 66 87 104 125 152 163 174 187 192 180 172 176 183 181 174 173 179 180 180 179 178 174 177 178 179 185
4 0 4 211 237 181 210 281 343 342 339 340 345 359 0 11 18 17 19 20 26 35 42 49 51 56 67 119 147 147 172 180 171 170 180 182 182 176 179 182 181 182 180 175 173 177 172 177 179
28 359 1 170 289 295 160 280 343 353 355 1 358 359 7 13 20 24 26 29 29 29 30 35 34 34 28 106 154 159 158 155 168 180 181 175 178 183 181 178 179 182 182 179 177 177 176 180 182
Height
1496 1497 1499 1502 1507 1517 1515 1506 1501 1499 1497 1494 1494 1495 1496 1498 1502 1505 1499 1499 1502 1505 1509 1513 1516 1519 1522 1524 1526 1528 1530 1532 1534 1535 1537 1538 1540 1541 1543 1545 1546 1547 1549 1550 1551 1552 1553 1554 1554
1495 1498 1501 1502 1511 1519 1512 1501 1499 1493 1491 1492 1493 1493 1494 1495 1495 1496 1496 1499 1502 1506 1509 1512 1515 1519 1521 1524 1526 1528 1530 1532 1534 1536 1537 1539 1541 1542 1544 1545 1547 1548 1549 1551 1552 1553 1554 1555 1556
1495 1497 1500 1504 1511 1510 1501 1494 1492 1490 1490 1491 1492 1492 1493 1494 1494 1495 1496 1499 1502 1506 1509 1512 1515 1518 1521 1523 1526 1528 1530 1532 1534 1536 1538 1539 1541 1543 1544 1546 1547 1549 1550 1551 1553 1554 1555 1556 1557
1495 1498 1500 1506 1505 1499 1493 1488 1488 1489 1489 1490 1490 1492 1493 1494 1494 1495 1497 1499 1502 1506 1509 1512 1515 1518 1521 1523 1525 1528 1530 1532 1534 1536 1538 1540 1541 1543 1545 1546 1548 1549 1551 1552 1554 1555 1556 1557 1558
1495 1496 1502 1506 1500 1493 1489 1487 1487 1488 1488 1488 1489 1490 1491 1493 1493 1495 1497 1500 1503 1506 1509 1512 1515 1518 1520 1523 1525 1527 1529 1532 1534 1536 1538 1540 1541 1543 1545 1547 1548 1550 1551 1553 1554 1556 1557 1558 1559
1494 1495 1504 1502 1494 1489 1487 1486 1486 1487 1487 1487 1489 1490 1490 1492 1493 1495 1498 1500 1503 1506 1509 1512 1515 1518 1520 1522 1525 1527 1529 1531 1533 1535 1538 1540 1542 1543 1545 1547 1548 1550 1552 1553 1555 1556 1558 1559 1560
1493 1496 1498 1496 1492 1488 1484 1483 1484 1485 1486 1486 1487 1489 1490 1491 1493 1495 1498 1501 1504 1506 1509 1512 1514 1517 1520 1522 1524 1527 1529 1531 1533 1535 1537 1539 1541 1543 1545 1547 1549 1550 1552 1553 1555 1557 1558 1560 1561
1490 1494 1494 1494 1490 1486 1481 1481 1481 1482 1483 1485 1486 1487 1488 1490 1492 1495 1498 1501 1503 1506 1509 1511 1514 1516 1519 1521 1524 1526 1528 1530 1532 1534 1537 1539 1541 1543 1545 1547 1548 1550 1552 1553 1555 1557 1558 1560 1561
1488 1494 1491 1487 1486 1482 1480 1480 1480 1481 1482 1483 1483 1484 1486 1488 1491 1494 1497 1500 1502 1505 1507 1510 1512 1515 1518 1520 1523 1525 1527 1529 1532 1534 1536 1538 1540 1542 1544 1546 1548 1550 1552 1553 1555 1557 1558 1560 1562
1486 1489 1482 1480 1480 1479 1479 1479 1479 1480 1480 1481 1482 1483 1485 1487 1489 1491 1494 1496 1499 1502 1505 1508 1511 1514 1516 1519 1522 1524 1526 1528 1530 1533 1535 1537 1539 1542 1544 1546 1547 1549 1551 1553 1555 1557 1558 1560 1562
1482 1482 1479 1478 1477 1478 1478 1478 1478 1478 1479 1478 1479 1481 1483 1486 1488 1490 1492 1494 1497 1500 1503 1506 1509 1512 1515 1517 1520 1522 1525 1527 1529 1532 1534 1536 1538 1541 1543 1545 1547 1549 1551 1552 1554 1556 1558 1560 1562
1481 1478 1478 1477 1477 1477 1477 1477 1477 1476 1476 1477 1478 1479 1481 1483 1485 1487 1490 1492 1496 1498 1501 1504 1507 1510 1513 1516 1518 1521 1524 1526 1528 1530 1533 1535 1537 1539 1542 1544 1546 1548 1550 1552 1554 1556 1558 1560 1561
1479 1477 1476 1476 1476 1476 1476 1475 1475 1473 1474 1475 1475 1477 1478 1481 1483 1486 1488 1491 1494 1496 1499 1502 1505 1508 1511 1514 1517 1519 1522 1524 1527 1529 1532 1534 1536 1538 1540 1542 1545 1547 1549 1551 1553 1555 1557 1559 1561
1476 1476 1475 1475 1474 1474 1474 1472 1473 1468 1471 1472 1473 1474 1476 1478 1480 1483 1486 1488 1491 1494 1497 1500 1503 1505 1509 1512 1515 1517 1520 1523 1525 1528 1530 1533 1535 1537 1539 1541 1544 1546 1548 1550 1552 1554 1556 1558 1560
1475 1476 1474 1473 1472 1472 1473 1470 1468 1466 1469 1470 1471 1472 1474 1475 1478 1480 1482 1485 1488 1491 1494 1497 1500 1503 1506 1509 1512 1515 1518 1521 1523 1526 1529 1531 1533 1536 1538 1540 1543 1545 1547 1549 1551 1553 1555 1557 1559
1475 1477 1477 1471 1471 1470 1475 1469 1464 1465 1466 1467 1468 1469 1471 1472 1474 1477 1479 1482 1485 1488 1491 1494 1498 1501 1504 1507 1510 1513 1516 1519 1521 1524 1527 1529 1532 1534 1537 1539 1541 1544 1546 1548 1550 1552 1554 1556 1558
1479 1481 1479 1473 1469 1469 1470 1468 1465 1464 1464 1465 1466 1467 1468 1469 1471 1473 1476 1479 1482 1485 1488 1491 1495 1498 1501 1504 1507 1511 1513 1516 1519 1522 1525 1527 1530 1533 1535 1537 1540 1542 1544 1546 1548 1550 1552 1554 1556
1480 1480 1477 1474 1469 1469 1469 1468 1464 1463 1463 1463 1463 1464 1465 1466 1467 1470 1472 1475 1479 1482 1485 1488 1492 1495 1498 1502 1505 1508 1511 1514 1517 1519 1522 1525 1528 1530 1533 1535 1537 1540 1542 1544 1546 1549 1551 1553 1555
1474 1476 1475 1472 1468 1469 1468 1466 1463 1461 1461 1461 1461 1462 1462 1463 1465 1467 1469 1472 1475 1478 1481 1485 1488 1491 1495 1498 1500 1504 1507 1511 1514 1517 1520 1523 1525 1528 1531 1533 1535 1537 1540 1542 1544 1547 1549 1551 1554
1473 1475 1474 1469 1467 1467 1466 1464 1461 1460 1459 1459 1459 1459 1460 1460 1461 1463 1466 1468 1471 1474 1477 1481 1484 1487 1491 1494 1498 1501 1505 1508 1511 1514 1517 1520 1523 1525 1528 1530 1532 1535 1537 1540 1542 1544 1546 1549 1551
1470 1472 1471 1470 1467 1464 1465 1463 1459 1457 1456 1456 1457 1456 1457 1457 1458 1460 1462 1464 1467 1470 1474 1477 1481 1484 1488 1491 1495 1499 1502 1505 1508 1511 1514 1517 1520 1522 1525 1527 1530 1532 1534 1537 1539 1541 1544 1546 1549
1468 1466 1467 1467 1470 1470 1465 1465 1458 1456 1455 1454 1454 1454 1454 1455 1456 1457 1459 1461 1464 1467 1470 1474 1477 1481 1484 1488 1491 1494 1497 1500 1504 1508 1511 1514 1516 1519 1521 1524 1526 1529 1531 1534 1536 1539 1541 1543 1545
1467 1464 1464 1465 1469 1471 1467 1467 1460 1456 1456 1453 1452 1452 1453 1453 1454 1455 1456 1459 1462 1465 1467 1471 1474 1477 1481 1485 1488 1491 1494 1498 1501 1505 1508 1511 1513 1515 1518 1520 1523 1525 1528 1530 1533 1535 1538 1540 1542
1465 1464 1464 1466 1469 1470 1465 1467 1463 1462 1458 1454 1452 1452 1452 1452 1453 1453 1455 1457 1460 1463 1465 1467 1471 1474 1478 1481 1485 1488 1491 1494 1498 1501 1504 1507 1509 1512 1514 1517 1519 1521 1524 1526 1529 1532 1534 1537 1539
1466 1469 1471 1471 1470 1466 1461 1464 1464 1461 1457 1455 1453 1453 1452 1451 1451 1452 1453 1455 1457 1460 1462 1465 1468 1471 1474 1478 1481 1485 1488 1491 1494 1497 1500 1503 1505 1507 1510 1513 1515 1518 1520 1523 1525 1528 1530 1533 1535
1470 1470 1472 1473 1470 1467 1463 1465 1463 1460 1457 1454 1454 1453 1452 1451 1451 1451 1452 1454 1456 1458 1461 1463 1466 1468 1472 1475 1478 1481 1485 1488 1491 1494 1496 1498 1501 1503 1506 1509 1511 1514 1516 1518 1521 1524 1526 1529 1531
1472 1471 1469 1471 1471 1470 1470 1469 1462 1458 1456 1454 1453 1453 1452 1452 1452 1452 1453 1454 1455 1457 1459 1462 1464 1466 1469 1472 1475 1478 1481 1484 1487 1490 1492 1495 1497 1500 1502 1505 1507 1509 1512 1514 1516 1519 1522 1524 1527
1473 1472 1472 1472 1471 1468 1469 1472 1469 1464 1461 1457 1455 1454 1454 1454 1453 1453 1453 1454 1455 1456 1459 1460 1462 1465 1467 1470 1473 1475 1478 1481 1484 1486 1489 1491 1493 1496 1498 1501 1503 1505 1508 1510 1512 1515 1517 1520 1522
1477 1477 1475 1474 1471 1471 1473 1475 1469 1467 1464 1461 1459 1457 1456 1455 1455 1455 1455 1455 1455 1456 1457 1459 1461 1463 1465 1468 1470 1472 1475 1478 1480 1482 1485 1487 1489 1491 1494 1497 1499 1501 1503 1506 1508 1510 1513 1515 1518
1480 1481 1479 1477 1479 1478 1476 1479 1468 1468 1465 1463 1461 1459 1457 1456 1456 1456 1456 1455 1455 1455 1457 1458 1460 1462 1464 1465 1467 1469 1472 1474 1476 1479 1481 1484 1486 1488 1491 1493 1495 1497 1500 1502 1504 1507 1509 1511 1513